Grizzly Air Cargo 5141


CYZF
Yellowknife Airport
Yellowknife, CA
PANC
Ted Stevens Anchorage International Airport
Anchorage, US

Route Details

Aircraft Information
Primary: Boeing 737-800BCF
Backup: Boeing 727-200F
Route Data
Distance: 1002nm
Sched. Duration: 2h 50m
Avg. Duration: 2h 33m (-16m)
Times Flown: 9
Recm'd Route: YZF268095 63N20 YWY NCA17 ORT J124 GKN PTERS3
Planned Altitude: 36,000ft
Origin Wx: CYZF 060600Z 07010KT 15SM FEW050 BKN100 BKN250 11/05 A3004 RMK SC2AC3CI2 SLP182
Dest. Wx: PANC 060553Z 24005KT 10SM FEW055 SCT110 BKN250 14/07 A2985 RMK AO2 SLP109 60000 T01390072 10194 20122 51001
Notes:

Financial History
Total Freight: 303,333lbs
Average Load: 33,704lbs/flt
Fuel Used: 182,242lbs
Avg. Fuel Used: 20,249lbs/flt
Fuel Expense: $52,850
Avg. Fuel Expense: $5,872
Avg. Fuel Cost: $0.29/lbs
Total Gross Income: $837,199
Pilot Pay: $2,061
Total Expenses: $90,886
Total Revenue: $687,935
Average Revenue: $93,022.12